Regional Weather Roundup
Issued by NWS

Home | Current Version | Previous Version | Text Only | Print | Product List | Glossary On
Versions: 1 2 3 4 5 6 7 8 9 10 11 12 13 14 15 16 17 18 19 20 21 22 23 24 25 26 27 28
000
ASUS44 KLIX 241216
RWRLA
LOUISIANA WEATHER ROUNDUP
NATIONAL WEATHER SERVICE NEW ORLEANS LA
700 AM CDT SUN JUL 24 2016

NOTE: "FAIR" INDICATES FEW OR NO CLOUDS BELOW 12,000 FEET WITH NO
      SIGNIFICANT WEATHER AND/OR OBSTRUCTIONS TO VISIBILITY.
      SKY/WX - SKY CONDITION AND SIGNIFICANT WEATHER.
      TMP - AIR TEMPERATURE.    DP   - DEWPOINT TEMPERATURE.
      RH  - RELATIVE HUMIDITY.  PRES - PRESSURE.
      HX  - HEAT INDEX.         WCI  - WIND CHILL INDEX.

*  THESE STATIONS ARE NOT NWS OR FAA STATIONS AND ARE NOT UNDER
   NWS QUALITY CONTROL.

LAZ040-048-061>063-065-066-069-241300-
SOUTHEAST LOUISIANA

CITY           SKY/WX    TMP DP  RH WIND       PRES   REMARKS
N.O. AUDUBON     N/A     82  79  91 MISG        N/A
6HR MIN TEMP:  79; 6HR MAX TEMP:  84;

N.O. INTL ARPT MOCLDY    82  77  84 W3        29.97R
6HR MIN TEMP:  81; 6HR MAX TEMP:  85;

N.O. LAKEFRONT CLEAR     83  76  79 SW5       29.97S
6HR MIN TEMP:  81; 6HR MAX TEMP:  84;

N.O. DOWNTOWN* FAIR      83  77  82 CALM      29.98R
6HR MIN TEMP:  82; 6HR MAX TEMP:  86;

RESERVE*       PTSUNNY   78  76  94 CALM      29.97S FOG
6HR MIN TEMP:  77; 6HR MAX TEMP:  80;

SLIDELL        PTCLDY    76  75  97 CALM      29.97R
6HR MIN TEMP:  75; 6HR MAX TEMP:  80;

BATON ROUGE    PTCLDY    77  74  90 NE3       29.98R
6HR MIN TEMP:  76; 6HR MAX TEMP:  78; 6HR PCP: TRACE;

BOOTHVILLE     CLOUDY    82  77  84 CALM      29.97R
6HR MIN TEMP:  81; 6HR MAX TEMP:  83;

BELLE CHASSE   CLEAR     77  76  96 CALM      29.97R
6HR MIN TEMP:  76; 6HR MAX TEMP:  78;

BOGALUSA*      CLOUDY    76  73  90 CALM      30.00R
6HR MIN TEMP:  75; 6HR MAX TEMP:  78;

GALLIANO*      MOSUNNY   72  71  96 CALM      29.97R
6HR MIN TEMP:  69; 6HR MAX TEMP:  73;

NEW ROADS*     FAIR      76  76  99 CALM      29.98R
6HR MIN TEMP:  75; 6HR MAX TEMP:  78;

GONZALES*      FAIR      75  75 100 CALM      29.97R
6HR MIN TEMP:  75; 6HR MAX TEMP:  76;

HAMMOND*       MOCLDY    73  72  94 CALM      29.97S FOG
HOUMA*         PTCLDY    75  75 100 CALM      29.97R
PORT FOURCHON* SUNNY     84  75  74 CALM      29.97R

$$

LAZ041-044-053-054-241300-
SOUTHWEST LOUISIANA

CITY           SKY/WX    TMP DP  RH WIND       PRES   REMARKS
LAKE CHARLES   PTCLDY    79  75  87 N3        29.95R
6HR MIN TEMP:  78; 6HR MAX TEMP:  81;

LAFAYETTE      PTCLDY    81  76  84 CALM      29.96R
6HR MIN TEMP:  80; 6HR MAX TEMP:  82;

PATTERSON      PTCLDY    78  77  96 CALM      29.97R
6HR MIN TEMP:  77; 6HR MAX TEMP:  80;

SALT POINT       N/A     84  76  76 CALM      29.95R
6HR MIN TEMP:  84; 6HR MAX TEMP:  86;

NEW IBERIA     CLEAR     78  76  93 CALM      29.97R
6HR MIN TEMP:  78; 6HR MAX TEMP:  80;

CHENAULT AIRPK PTCLDY    77  73  88 CALM      29.96R

$$

LAZ027-028-241300-
CENTRAL LOUISIANA

CITY           SKY/WX    TMP DP  RH WIND       PRES   REMARKS
FORT POLK      PTCLDY    79  76  91 W6        29.97R
6HR MIN TEMP:  79; 6HR MAX TEMP:  82;

ALEXANDRIA INT PTCLDY    78  76  93 CALM      29.95R
6HR MIN TEMP:  78; 6HR MAX TEMP:  81;

ALEXANDRIA     PTCLDY    77  77 100 CALM      29.97R FOG
6HR MIN TEMP:  76; 6HR MAX TEMP:  79;


$$

LAZ001-002-241300-
NORTHWEST LOUISIANA

CITY           SKY/WX    TMP DP  RH WIND       PRES   REMARKS
SHREVEPORT     CLOUDY    78  76  93 CALM      29.96R
6HR MIN TEMP:  78; 6HR MAX TEMP:  80;

BARKSDALE AFB  CLOUDY    76  76  99 CALM      29.96R
6HR MIN TEMP:  75; 6HR MAX TEMP:  78;

DTN SHREVEPORT CLOUDY    78  76  93 CALM      29.96R FOG
6HR MIN TEMP:  77; 6HR MAX TEMP:  79;


$$

LAZ014-016-241300-
NORTHEAST LOUISIANA

CITY           SKY/WX    TMP DP  RH WIND       PRES   REMARKS
MONROE         PTCLDY    76  75  97 CALM      29.96R
6HR MIN TEMP:  75; 6HR MAX TEMP:  77;

TALLULAH       CLEAR     77  74  90 CALM      29.96S
6HR MIN TEMP:  75; 6HR MAX TEMP:  77;


$$





USA.gov is the U.S. government's official web portal to all federal, state and local government web resources and services.